Weather History for Ionia, MI

Change the Weather History Date:

Saturday, November 17, 2012

  Actual Average (KGRR) Record (KGRR)
Temperature  
Mean Temperature 39 °F 40 °F  
Max Temperature 52 °F 47 °F 70 °F (1953)
Min Temperature 26 °F 33 °F 9 °F (1959)
Degree Days  
Heating Degree Days 26 25  
Month to date heating degree days 378  
Since 1 July heating degree days 970  
Cooling Degree Days 0 0  
Month to date cooling degree days 0  
Year to date cooling degree days 699  
Moisture  
Dew Point 30 °F    
Average Humidity 76    
Maximum Humidity 99    
Minimum Humidity 37    
Precipitation  
Precipitation 0.00 in 0.12 in 1.59 in (1952)
Month to date precipitation 2.05  
Year to date precipitation 34.31  
Snow  
Snow 0.00 in 0.20 in 7.10 in (1989)
Month to date snowfall 2.5  
Since 1 July snowfall 3.0  
Since 1 September snowfall 3.0  
Snow Depth -    
Sea Level Pressure  
Sea Level Pressure 30.52 in    
Wind  
Wind Speed 3 mph (SSE)    
Max Wind Speed 10 mph    
Max Gust Speed -    
Visibility 6 miles    
Events Fog , Snow    
T = Trace of Precipitation, MM = Missing Value Source: NWS Daily Summary

Daily Weather History Graph

Daily Weather History Graph

Search for Another Location

Airport:

Trip Planner

Search our weather history database for the weather conditions in past years. The results will help you decide how hot, cold, wet, or windy it might be!

Date:

Astronomy

Nov. 17, 2012 Rise Set
Actual Time 7:35 AM EST 5:14 PM EST
Civil Twilight 7:04 AM EST 5:45 PM EST
Nautical Twilight 6:30 AM EST 6:19 PM EST
Astronomical Twilight 5:56 AM EST 6:53 PM EST
Moon 11:19 AM EST (11/17) 9:24 PM EST (11/17)
Length of Visible Light 10h 40m
Length of Day
9h 39m
Waxing Crescent, 20% of the Moon is Illuminated
Nov 17
Waxing Crescent
Nov 20
First Quarter
Nov 28
Full
Dec 6
Last Quarter
Dec 13
New

Hourly Weather History & Observations

Time (EST) Temp. Windchill Dew Point Humidity Pressure Visibility Wind Dir Wind Speed Gust Speed Precip Events Conditions
12:14 AM 31.3 °F - 30.4 °F 96% 30.49 in 2.5 mi Calm Calm - N/A   Clear
12:34 AM 32.0 °F - 30.7 °F 95% 30.49 in 3.0 mi Calm Calm - N/A   Clear
12:54 AM 32.0 °F - 30.2 °F 93% 30.49 in 5.0 mi Calm Calm - N/A   Clear
1:14 AM 30.4 °F - 28.8 °F 94% 30.49 in 3.0 mi Calm Calm - N/A   Clear
1:34 AM 31.5 °F - 30.2 °F 95% 30.49 in 1.5 mi Calm Calm - N/A   Mist
1:54 AM 30.7 °F 27.3 °F 29.3 °F 94% 30.49 in 4.0 mi SSW 3.5 mph - N/A   Clear
2:14 AM 30.7 °F - 29.3 °F 94% 30.49 in 3.0 mi Calm Calm - N/A   Clear
2:34 AM 28.8 °F - 27.3 °F 94% 30.50 in 2.5 mi Calm Calm - N/A   Clear
2:54 AM 30.6 °F - 29.7 °F 96% 30.50 in 3.0 mi Calm Calm - N/A   Clear
3:14 AM 30.0 °F - 28.4 °F 94% 30.51 in 2.5 mi Calm Calm - N/A   Clear
3:34 AM 28.0 °F - 27.0 °F 96% 30.52 in 3.0 mi Calm Calm - N/A   Clear
3:54 AM 30.6 °F - 29.5 °F 96% 30.52 in 2.5 mi Calm Calm - N/A   Clear
4:14 AM 30.0 °F - 28.8 °F 95% 30.52 in 3.0 mi Calm Calm - N/A   Clear
4:34 AM 28.4 °F - 27.1 °F 95% 30.52 in 1.5 mi Calm Calm - N/A   Scattered Clouds
4:54 AM 27.1 °F 21.8 °F 26.6 °F 98% 30.52 in 0.2 mi South 4.6 mph - N/A Fog Light Freezing Fog
5:14 AM 27.5 °F 22.2 °F 27.0 °F 98% 30.52 in 0.2 mi South 4.6 mph - N/A Fog Light Freezing Fog
5:34 AM 26.4 °F 22.4 °F 25.7 °F 97% 30.52 in 0.2 mi SSW 3.5 mph - N/A Fog Light Freezing Fog
5:54 AM 26.6 °F - 26.2 °F 99% 30.53 in 0.2 mi Calm Calm - N/A Fog Light Freezing Fog
6:14 AM 27.1 °F - 26.6 °F 98% 30.53 in 0.2 mi Calm Calm - N/A Fog Light Freezing Fog
6:34 AM 27.0 °F - 26.4 °F 98% 30.53 in 0.2 mi Calm Calm - N/A Fog Light Freezing Fog
6:54 AM 27.0 °F - 26.4 °F 98% 30.54 in 0.2 mi Calm Calm - N/A Fog Light Freezing Fog
7:14 AM 26.4 °F - 25.9 °F 98% 30.54 in 0.2 mi Calm Calm - N/A Fog Light Freezing Fog
7:34 AM 26.6 °F - 25.9 °F 97% 30.55 in 0.2 mi Calm Calm - N/A Fog Light Freezing Fog
7:54 AM 26.4 °F - 25.7 °F 97% 30.55 in 0.2 mi Calm Calm - N/A Fog Light Freezing Fog
8:14 AM 27.0 °F - 26.4 °F 98% 30.56 in 0.2 mi Calm Calm - N/A Snow Light Snow
8:34 AM 27.7 °F 23.8 °F 27.3 °F 99% 30.56 in 0.2 mi SSE 3.5 mph - N/A Fog Light Freezing Fog
8:54 AM 28.4 °F 24.6 °F 27.9 °F 98% 30.56 in 0.2 mi SSE 3.5 mph - N/A Fog Light Freezing Fog
9:14 AM 31.3 °F 26.6 °F 30.7 °F 98% 30.56 in 0.2 mi SSE 4.6 mph - N/A Fog Light Freezing Fog
9:34 AM 32.4 °F 29.1 °F 32.0 °F 99% 30.57 in 0.8 mi SSE 3.5 mph - N/A   Mist
9:54 AM 34.7 °F 30.6 °F 34.2 °F 98% 30.57 in 1.5 mi SSE 4.6 mph - N/A   Mist
10:14 AM 37.0 °F 34.5 °F 36.5 °F 98% 30.57 in 3.0 mi SSE 3.5 mph - N/A   Clear
10:34 AM 40.1 °F 38.0 °F 36.1 °F 86% 30.57 in 5.0 mi South 3.5 mph - N/A   Clear
10:54 AM 41.9 °F 40.0 °F 36.3 °F 81% 30.57 in 5.0 mi SSE 3.5 mph - N/A   Haze
11:14 AM 44.8 °F 41.6 °F 35.8 °F 71% 30.57 in 7.0 mi South 5.8 mph - N/A   Clear
11:34 AM 47.5 °F - 34.0 °F 59% 30.56 in 10.0 mi South 5.8 mph - N/A   Clear
11:54 AM 48.7 °F - 31.6 °F 52% 30.56 in 10.0 mi South 6.9 mph - N/A   Clear
12:14 PM 49.5 °F - 30.7 °F 49% 30.55 in 10.0 mi SSW 8.1 mph - N/A   Clear
12:34 PM 50.2 °F - 29.1 °F 44% 30.54 in 7.0 mi SSW 8.1 mph - N/A   Clear
12:54 PM 50.9 °F - 28.8 °F 43% 30.54 in 10.0 mi SSW 6.9 mph - N/A   Clear
1:14 PM 51.1 °F - 27.9 °F 41% 30.54 in 10.0 mi SSW 6.9 mph - N/A   Clear
1:34 PM 51.8 °F - 27.9 °F 40% 30.53 in 10.0 mi SW 6.9 mph - N/A   Clear
1:54 PM 52.2 °F - 27.1 °F 38% 30.53 in 10.0 mi SSW 6.9 mph - N/A   Clear
2:14 PM 52.3 °F - 26.6 °F 37% 30.53 in 10.0 mi South 6.9 mph - N/A   Clear
2:34 PM 52.3 °F - 27.1 °F 38% 30.52 in 10.0 mi South 8.1 mph - N/A   Clear
2:54 PM 52.7 °F - 27.3 °F 38% 30.52 in 10.0 mi South 6.9 mph - N/A   Clear
3:14 PM 52.9 °F - 28.0 °F 38% 30.52 in 10.0 mi South 8.1 mph - N/A   Clear
3:34 PM 52.2 °F - 29.1 °F 41% 30.51 in 7.0 mi South 5.8 mph - N/A   Clear
3:54 PM 52.3 °F - 27.7 °F 39% 30.51 in 10.0 mi SSW 3.5 mph - N/A   Clear
4:14 PM 51.8 °F - 29.3 °F 42% 30.51 in 10.0 mi Calm Calm - N/A   Clear
4:34 PM 49.6 °F - 33.4 °F 54% 30.52 in 10.0 mi SSE 4.6 mph - N/A   Clear
4:54 PM 49.3 °F - 32.2 °F 52% 30.51 in 10.0 mi SSE 5.8 mph - N/A   Clear
5:14 PM 47.8 °F - 31.5 °F 53% 30.51 in 10.0 mi SSE 5.8 mph - N/A   Clear
5:34 PM 46.4 °F 44.3 °F 30.7 °F 54% 30.51 in 10.0 mi SSE 4.6 mph - N/A   Clear
5:54 PM 44.2 °F 41.8 °F 30.2 °F 58% 30.51 in 10.0 mi SE 4.6 mph - N/A   Clear
6:14 PM 41.9 °F 39.0 °F 30.2 °F 63% 30.51 in 10.0 mi SE 4.6 mph - N/A   Clear
6:34 PM 42.6 °F 37.8 °F 30.2 °F 61% 30.51 in 10.0 mi SSE 8.1 mph - N/A   Clear
7:14 PM 40.1 °F 36.1 °F 29.8 °F 67% 30.51 in 10.0 mi SE 5.8 mph - N/A   Clear
7:34 PM 40.1 °F 35.3 °F 30.0 °F 67% 30.50 in 10.0 mi SE 6.9 mph - N/A   Clear
7:54 PM 40.5 °F 35.1 °F 30.0 °F 66% 30.50 in 10.0 mi SE 8.1 mph - N/A   Clear
8:14 PM 39.4 °F 33.2 °F 30.0 °F 69% 30.50 in 10.0 mi SSE 9.2 mph - N/A   Clear
8:34 PM 39.4 °F 33.2 °F 30.6 °F 71% 30.50 in 10.0 mi SSE 9.2 mph - N/A   Clear
8:54 PM 39.2 °F 32.5 °F 30.6 °F 71% 30.51 in 10.0 mi SSE 10.4 mph - N/A   Clear
9:14 PM 39.7 °F 33.2 °F 30.7 °F 70% 30.51 in 10.0 mi SSE 10.4 mph - N/A   Clear
9:34 PM 38.8 °F 32.1 °F 30.9 °F 73% 30.51 in 10.0 mi SSE 10.4 mph - N/A   Clear
9:54 PM 38.3 °F 31.9 °F 31.1 °F 75% 30.51 in 10.0 mi SSE 9.2 mph - N/A   Clear
10:14 PM 37.6 °F 31.6 °F 31.1 °F 77% 30.51 in 10.0 mi SSE 8.1 mph - N/A   Clear
10:34 PM 36.7 °F 29.9 °F 31.1 °F 80% 30.51 in 10.0 mi SSE 9.2 mph - N/A   Clear
10:54 PM 36.9 °F 30.7 °F 31.1 °F 80% 30.51 in 10.0 mi SSE 8.1 mph - N/A   Clear
11:14 PM 36.5 °F 31.8 °F 31.1 °F 81% 30.51 in 10.0 mi SSE 5.8 mph - N/A   Clear
11:34 PM 36.0 °F 32.1 °F 30.7 °F 81% 30.51 in 10.0 mi SE 4.6 mph - N/A   Clear
11:54 PM 36.3 °F 33.7 °F 30.6 °F 80% 30.51 in 7.0 mi SE 3.5 mph - N/A   Clear